KC5ZJO-1 Weather Reports


Display with metric or nautical units.
time (UTC)temp
F
wind
direction
speed
MPH
gust
MPH
rain 1hr
in
rain 24hr
in
rain mn
in
humidity
%
barometer
mb
20260506033504 71 170 3.0 11.0 0.00 0.00 0.00 66 1010.3
20260506033003 71 182 6.0 11.0 0.00 0.00 0.00 66 1010.2
20260506032503 71 193 5.0 11.0 0.00 0.00 0.00 67 1010.2
20260506032003 71 190 5.0 13.0 0.00 0.00 0.00 67 1010.2
20260506031503 71 179 3.0 13.0 0.00 0.00 0.00 67 1010.3
20260506031004 71 166 3.0 12.0 0.00 0.00 0.00 67 1010.2
20260506030503 71 184 5.0 12.0 0.00 0.00 0.00 67 1010.2
20260506030003 71 181 3.0 12.0 0.00 0.00 0.00 67 1010.3
20260506025504 71 193 6.0 10.0 0.00 0.00 0.00 67 1010.3
20260506025004 71 173 5.0 14.0 0.00 0.00 0.00 67 1010.3
20260506024503 71 179 5.0 14.0 0.00 0.00 0.00 67 1010.2
20260506024003 71 191 5.0 13.0 0.00 0.00 0.00 67 1010.0
20260506023503 71 174 4.0 13.0 0.00 0.00 0.00 67 1009.9
20260506023003 71 180 2.0 13.0 0.00 0.00 0.00 67 1010.0
20260506022503 71 190 3.0 13.0 0.00 0.00 0.00 67 1010.1
20260506022025 71 193 5.0 12.0 0.00 0.00 0.00 68 1010.0
20260506021525 71 194 7.0 12.0 0.00 0.00 0.00 68 1009.9
20260506021003 70 186 3.0 10.0 0.00 0.00 0.00 68 1009.9
20260506020503 70 204 5.0 12.0 0.00 0.00 0.00 68 1009.6
20260506020003 71 164 5.0 12.0 0.00 0.00 0.00 68 1009.1
20260506015524 71 193 3.0 9.0 0.00 0.00 0.00 67 1009.3
20260506015003 71 168 3.0 10.0 0.00 0.00 0.00 67 1009.5
20260506014504 71 180 5.0 14.0 0.00 0.00 0.00 67 1009.5
20260506014003 71 194 3.0 14.0 0.00 0.00 0.00 66 1010.0
20260506013503 71 195 5.0 11.0 0.00 0.00 0.00 66 1010.0
20260506013004 71 192 5.0 11.0 0.00 0.00 0.00 67 1009.9
20260506012503 71 177 1.0 12.0 0.00 0.00 0.00 66 1009.7
20260506012003 71 185 4.0 13.0 0.00 0.00 0.00 66 1009.9
20260506011503 71 177 6.0 13.0 0.00 0.00 0.00 66 1009.7
20260506011003 71 178 7.0 13.0 0.00 0.00 0.00 66 1009.7
20260506010502 71 168 5.0 13.0 0.00 0.00 0.00 66 1009.6
20260506010003 71 179 4.0 11.0 0.00 0.00 0.00 66 1009.6
20260506005503 71 189 5.0 11.0 0.00 0.00 0.00 66 1009.7
20260506005024 71 166 1.0 13.0 0.00 0.00 0.00 65 1009.6
20260506004504 71 175 4.0 13.0 0.00 0.00 0.00 65 1009.6
20260506004003 71 193 4.0 14.0 0.00 0.00 0.00 64 1009.7
20260506003524 71 189 5.0 14.0 0.00 0.00 0.00 64 1009.7
20260506003004 71 194 4.0 12.0 0.00 0.00 0.00 64 1009.7
20260506002504 71 195 7.0 12.0 0.00 0.00 0.00 64 1009.6
20260506002003 72 163 3.0 12.0 0.00 0.00 0.00 64 1009.5
20260506001503 72 178 4.0 12.0 0.00 0.00 0.00 63 1009.5
20260506001004 72 171 5.0 13.0 0.00 0.00 0.00 63 1009.5
20260506000503 72 185 4.0 13.0 0.00 0.00 0.00 63 1009.6
20260506000004 72 189 6.0 14.0 0.00 0.00 0.00 63 1009.6
20260505235525 72 196 5.0 16.0 0.00 0.00 0.00 63 1009.5
20260505235002 72 188 6.0 16.0 0.00 0.00 0.00 63 1009.6
20260505234503 72 183 3.0 13.0 0.00 0.00 0.00 63 1009.7
20260505234002 72 186 5.0 11.0 0.00 0.00 0.00 62 1009.9
20260505233503 72 177 4.0 11.0 0.00 0.00 0.00 62 1010.0
20260505233003 72 189 6.0 13.0 0.00 0.00 0.00 62 1010.1
20260505232503 72 186 5.0 13.0 0.00 0.00 0.00 62 1010.1
20260505232045 72 175 4.0 12.0 0.00 0.00 0.00 61 1010.2
20260505231504 73 182 2.0 17.0 0.00 0.00 0.00 61 1010.3
20260505231003 73 191 7.0 17.0 0.00 0.00 0.00 61 1010.5
20260505230503 73 188 6.0 13.0 0.00 0.00 0.00 60 1010.5
20260505230002 73 166 6.0 14.0 0.00 0.00 0.00 60 1010.4
20260505225524 73 186 7.0 16.0 0.00 0.00 0.00 60 1010.5
20260505225025 73 197 7.0 16.0 0.00 0.00 0.00 60 1010.4
20260505224503 73 179 1.0 16.0 0.00 0.00 0.00 60 1010.5
20260505224003 72 196 6.0 11.0 0.00 0.00 0.00 61 1010.5
20260505223503 72 182 4.0 11.0 0.00 0.00 0.00 61 1010.5
20260505223003 72 192 5.0 11.0 0.00 0.00 0.00 61 1010.7
20260505222524 73 176 5.0 17.0 0.00 0.00 0.00 60 1010.8
20260505222002 73 200 9.0 17.0 0.00 0.00 0.00 60 1010.8
20260505221504 73 206 7.0 12.0 0.00 0.00 0.00 60 1010.8
20260505221003 73 187 7.0 12.0 0.00 0.00 0.00 60 1010.8
20260505220502 73 184 6.0 14.0 0.00 0.00 0.00 59 1010.6
20260505220002 73 198 7.0 19.0 0.00 0.00 0.00 59 1010.7
20260505215503 73 181 7.0 19.0 0.00 0.00 0.00 58 1010.8
20260505215003 73 183 7.0 17.0 0.00 0.00 0.00 58 1010.8
20260505214503 73 198 5.0 17.0 0.00 0.00 0.00 58 1010.8
20260505214024 73 202 6.0 19.0 0.00 0.00 0.00 58 1010.7
20260505213525 73 197 8.0 19.0 0.00 0.00 0.00 57 1010.8
20260505213003 73 203 11.0 18.0 0.00 0.00 0.00 56 1010.8
20260505212524 73 187 4.0 22.0 0.00 0.00 0.00 57 1010.8
20260505212024 73 198 11.0 22.0 0.00 0.00 0.00 55 1010.9
20260505211504 74 183 8.0 19.0 0.00 0.00 0.00 56 1010.9
20260505211003 74 200 8.0 17.0 0.00 0.00 0.00 56 1010.9
20260505210502 74 182 8.0 19.0 0.00 0.00 0.00 56 1010.8
20260505210024 73 198 11.0 19.0 0.00 0.00 0.00 55 1010.9
20260505205502 73 195 7.0 17.0 0.00 0.00 0.00 56 1010.8
20260505205003 73 190 6.0 16.0 0.00 0.00 0.00 57 1010.7
20260505204502 73 187 8.0 16.0 0.00 0.00 0.00 57 1010.6
20260505204002 73 175 7.0 13.0 0.00 0.00 0.00 57 1010.6
20260505203503 73 202 6.0 13.0 0.00 0.00 0.00 56 1010.5
20260505203002 73 186 5.0 15.0 0.00 0.00 0.00 56 1010.6
20260505202503 73 187 8.0 16.0 0.00 0.00 0.00 56 1010.5
20260505202003 73 193 8.0 16.0 0.00 0.00 0.00 56 1010.6
20260505201503 73 193 1.0 11.0 0.00 0.00 0.00 57 1010.8
20260505201003 73 187 4.0 11.0 0.00 0.00 0.00 56 1010.8
20260505200503 72 157 2.0 11.0 0.00 0.00 0.00 57 1010.7
20260505200003 72 159 3.0 11.0 0.00 0.00 0.00 57 1010.7
20260505195503 72 150 1.0 13.0 0.00 0.00 0.00 56 1010.9
20260505195002 72 187 7.0 13.0 0.00 0.00 0.00 55 1010.9
20260505194502 72 186 6.0 13.0 0.00 0.00 0.00 55 1010.8
20260505194003 72 186 5.0 12.0 0.00 0.00 0.00 56 1010.8
20260505193502 72 194 5.0 12.0 0.00 0.00 0.00 57 1010.8
20260505193024 72 187 6.0 12.0 0.00 0.00 0.00 56 1010.9
20260505192503 72 188 5.0 12.0 0.00 0.00 0.00 56 1011.1
20260505192002 73 181 6.0 12.0 0.00 0.00 0.00 55 1011.2
20260505191502 73 188 4.0 10.0 0.00 0.00 0.00 53 1011.2
20260505191002 73 177 2.0 10.0 0.00 0.00 0.00 52 1011.6
20260505190502 74 156 0.0 13.0 0.00 0.00 0.00 52 1012.1
20260505190003 74 196 8.0 13.0 0.00 0.00 0.00 51 1012.4
20260505185503 74 198 4.0 10.0 0.00 0.00 0.00 50 1012.6
20260505185002 74 226 4.0 11.0 0.00 0.00 0.00 50 1012.7
20260505184502 75 209 7.0 12.0 0.00 0.00 0.00 49 1012.7
20260505184003 75 229 6.0 16.0 0.00 0.00 0.00 48 1012.7
20260505183502 75 223 6.0 17.0 0.00 0.00 0.00 47 1012.8
20260505183002 76 225 8.0 17.0 0.00 0.00 0.00 46 1012.8
20260505182503 76 200 5.0 15.0 0.00 0.00 0.00 46 1012.6
20260505182002 77 221 7.0 16.0 0.00 0.00 0.00 45 1012.7
20260505181502 76 210 9.0 16.0 0.00 0.00 0.00 45 1012.7
20260505181002 76 208 7.0 13.0 0.00 0.00 0.00 45 1012.8
20260505180502 77 210 5.0 13.0 0.00 0.00 0.00 45 1012.8
20260505180003 77 239 6.0 15.0 0.00 0.00 0.00 45 1012.9
20260505175503 77 203 5.0 17.0 0.00 0.00 0.00 45 1012.7
20260505175002 77 216 6.0 17.0 0.00 0.00 0.00 45 1012.6
20260505174503 76 203 7.0 16.0 0.00 0.00 0.00 46 1012.7
20260505174003 76 201 8.0 15.0 0.00 0.00 0.00 46 1012.8
20260505173503 76 186 9.0 15.0 0.00 0.00 0.00 45 1012.8
20260505173003 76 163 5.0 14.0 0.00 0.00 0.00 46 1012.8
20260505172503 75 181 6.0 14.0 0.00 0.00 0.00 47 1012.9
20260505172004 76 200 5.0 16.0 0.00 0.00 0.00 48 1012.9
20260505171504 75 188 7.0 16.0 0.00 0.00 0.00 48 1013.1
20260505171024 75 210 5.0 16.0 0.00 0.00 0.00 48 1013.1
20260505170503 75 224 9.0 16.0 0.00 0.00 0.00 48 1013.2
20260505170003 75 201 7.0 12.0 0.00 0.00 0.00 48 1013.3
20260505165503 75 206 7.0 12.0 0.00 0.00 0.00 49 1013.4
20260505165003 75 208 6.0 14.0 0.00 0.00 0.00 50 1013.3
20260505164503 75 224 7.0 16.0 0.00 0.00 0.00 50 1013.5
20260505164003 75 219 10.0 16.0 0.00 0.00 0.00 49 1013.4
20260505163502 75 195 7.0 14.0 0.00 0.00 0.00 51 1013.4
20260505163004 74 212 8.0 16.0 0.00 0.00 0.00 51 1013.3
20260505162505 74 217 7.0 16.0 0.00 0.00 0.00 51 1013.4
20260505162003 74 188 7.0 14.0 0.00 0.00 0.00 51 1013.4
20260505161503 74 193 7.0 14.0 0.00 0.00 0.00 52 1013.4
20260505161025 73 204 6.0 18.0 0.00 0.00 0.00 52 1013.4
20260505160505 73 202 13.0 18.0 0.00 0.00 0.00 52 1013.3
20260505153003 71 203 7.0 11.0 0.00 0.00 0.00 59 1013.3
20260505152504 70 216 6.0 11.0 0.00 0.00 0.00 59 1013.3
20260505152004 70 211 8.0 12.0 0.00 0.00 0.00 60 1013.3
20260505151503 70 206 4.0 12.0 0.00 0.00 0.00 60 1013.3
20260505151002 70 199 4.0 12.0 0.00 0.00 0.00 61 1013.4
20260505150503 70 198 6.0 12.0 0.00 0.00 0.00 63 1013.3
20260505140504 64 193 5.0 10.0 0.00 0.00 0.00 74 1013.5
20260505125003 53 191 0.0 0.0 0.00 0.00 0.00 83 1016.9
20260505124503 53 191 0.0 0.0 0.00 0.00 0.00 83 1016.9
20260505124024 53 191 0.0 0.0 0.00 0.00 0.00 83 1016.9
20260505123503 53 191 0.0 0.0 0.00 0.00 0.00 83 1016.9
20260505123003 53 191 0.0 0.0 0.00 0.00 0.00 83 1016.9
20260505122505 53 191 0.0 0.0 0.00 0.00 0.00 83 1016.9
20260505122003 53 191 0.0 0.0 0.00 0.00 0.00 83 1016.9
20260505121503 53 191 0.0 0.0 0.00 0.00 0.00 83 1016.9
20260505121003 53 191 0.0 0.0 0.00 0.00 0.00 83 1016.9
20260505120503 53 191 0.0 0.0 0.00 0.00 0.00 83 1016.9
20260505120003 53 191 0.0 0.0 0.00 0.00 0.00 83 1016.9
20260505115503 53 191 0.0 0.0 0.00 0.00 0.00 83 1016.9
20260505115003 53 191 0.0 0.0 0.00 0.00 0.00 83 1016.9
20260505114502 53 191 0.0 0.0 0.00 0.00 0.00 83 1016.9
20260505114003 53 191 0.0 0.0 0.00 0.00 0.00 83 1016.9
20260505113503 53 191 0.0 0.0 0.00 0.00 0.00 83 1016.9
20260505113045 53 191 0.0 0.0 0.00 0.00 0.00 83 1016.9
20260505112503 53 191 0.0 0.0 0.00 0.00 0.00 83 1016.9
20260505112046 53 191 0.0 0.0 0.00 0.00 0.00 83 1016.9
20260505111504 53 191 0.0 0.0 0.00 0.00 0.00 83 1016.9
20260505111003 53 191 0.0 0.0 0.00 0.00 0.00 83 1016.9
20260505110503 53 191 0.0 0.0 0.00 0.00 0.00 83 1016.9
20260505102025 53 191 0.0 0.0 0.00 0.00 0.00 83 1016.9
20260505101503 53 191 0.0 0.0 0.00 0.00 0.00 83 1016.9
20260505101003 53 191 0.0 0.0 0.00 0.00 0.00 83 1016.9
20260505100503 53 191 0.0 0.0 0.00 0.00 0.00 83 1016.9
20260505100003 53 191 0.0 0.0 0.00 0.00 0.00 83 1016.9
20260505095503 53 191 0.0 0.0 0.00 0.00 0.00 83 1016.9
20260505095025 53 191 0.0 0.0 0.00 0.00 0.00 83 1016.9
20260505094524 53 191 0.0 0.0 0.00 0.00 0.00 83 1016.9
20260505094024 53 191 0.0 0.0 0.00 0.00 0.00 83 1016.9
20260505093524 53 191 0.0 0.0 0.00 0.00 0.00 83 1016.9
20260505093004 53 191 0.0 0.0 0.00 0.00 0.00 83 1016.9
20260505092503 53 191 0.0 0.0 0.00 0.00 0.00 83 1016.9
20260505092004 53 191 0.0 0.0 0.00 0.00 0.00 83 1016.9
20260505091503 53 191 0.0 0.0 0.00 0.00 0.00 83 1016.9
20260505091003 53 191 0.0 0.0 0.00 0.00 0.00 83 1016.9
20260505090503 53 191 0.0 0.0 0.00 0.00 0.00 83 1016.9
20260505090004 53 191 0.0 0.0 0.00 0.00 0.00 83 1016.9
20260505085503 53 191 0.0 0.0 0.00 0.00 0.00 83 1016.9
20260505085003 53 191 0.0 0.0 0.00 0.00 0.00 83 1016.9
20260505084503 53 191 0.0 0.0 0.00 0.00 0.00 83 1016.9
20260505084004 53 191 0.0 0.0 0.00 0.00 0.00 83 1016.9
20260505083504 53 191 0.0 0.0 0.00 0.00 0.00 83 1016.9
20260505083003 53 191 0.0 0.0 0.00 0.00 0.00 83 1016.9
20260505082503 53 191 0.0 0.0 0.00 0.00 0.00 83 1016.9
20260505082004 53 191 0.0 0.0 0.00 0.00 0.00 83 1016.9
20260505081504 53 191 0.0 0.0 0.00 0.00 0.00 83 1016.9
20260505081003 53 191 0.0 0.0 0.00 0.00 0.00 83 1016.9
20260505080503 53 191 0.0 0.0 0.00 0.00 0.00 83 1016.9
20260505080004 53 191 0.0 0.0 0.00 0.00 0.00 83 1016.9
20260505075504 53 191 0.0 0.0 0.00 0.00 0.00 83 1016.9
20260505075003 53 191 0.0 0.0 0.00 0.00 0.00 83 1016.9
20260505074546 53 191 0.0 0.0 0.00 0.00 0.00 83 1016.9
20260505074004 53 191 0.0 0.0 0.00 0.00 0.00 83 1016.9
20260505073503 53 191 0.0 0.0 0.00 0.00 0.00 83 1016.9
20260505073003 53 191 0.0 0.0 0.00 0.00 0.00 83 1016.9
20260505072504 53 191 0.0 0.0 0.00 0.00 0.00 83 1016.9
20260505072004 53 191 0.0 0.0 0.00 0.00 0.00 83 1016.9
20260505071524 53 191 0.0 0.0 0.00 0.00 0.00 83 1016.9
20260505071003 53 191 0.0 0.0 0.00 0.00 0.00 83 1016.9
20260505070503 53 191 0.0 0.0 0.00 0.00 0.00 83 1016.9
20260505070004 53 191 0.0 0.0 0.00 0.00 0.00 83 1016.9
20260505065503 53 191 0.0 0.0 0.00 0.00 0.00 83 1016.9
20260505065003 53 191 0.0 0.0 0.00 0.00 0.00 83 1016.9
20260505064504 53 191 0.0 0.0 0.00 0.00 0.00 83 1016.9
20260505064003 53 191 0.0 0.0 0.00 0.00 0.00 83 1016.9
20260505063525 53 191 0.0 0.0 0.00 0.00 0.00 83 1016.9
20260505063003 53 191 0.0 0.0 0.00 0.00 0.00 83 1016.9
20260505062503 53 191 0.0 0.0 0.00 0.00 0.00 83 1016.9
20260505062004 53 191 0.0 0.0 0.00 0.00 0.00 83 1016.9
20260505061503 53 191 0.0 0.0 0.00 0.00 0.00 83 1016.9
20260505061004 53 191 0.0 0.0 0.00 0.00 0.00 83 1016.9
20260505060505 53 191 0.0 0.0 0.00 0.00 0.00 83 1016.9
20260505060004 53 191 0.0 0.0 0.00 0.00 0.00 83 1016.9
20260505055504 53 191 0.0 0.0 0.00 0.00 0.00 83 1016.9
20260505055004 53 191 0.0 0.0 0.00 0.00 0.00 83 1016.9
20260505054504 53 191 0.0 0.0 0.00 0.00 0.00 83 1016.9
20260505054004 53 191 0.0 0.0 0.00 0.00 0.00 83 1016.9
20260505053503 53 191 0.0 0.0 0.00 0.00 0.00 83 1016.9
20260505053003 53 191 0.0 0.0 0.00 0.00 0.00 83 1016.9
20260505052504 53 191 0.0 0.0 0.00 0.00 0.00 83 1016.9
20260505052003 53 191 0.0 0.0 0.00 0.00 0.00 83 1016.9
20260505051503 53 191 0.0 0.0 0.00 0.00 0.00 83 1016.9
20260505051004 53 191 0.0 0.0 0.00 0.00 0.00 83 1016.9
20260505050503 53 191 0.0 0.0 0.00 0.00 0.00 83 1016.9
20260505041503 53 191 0.0 0.0 0.00 0.00 0.00 83 1016.9
20260505041003 53 191 0.0 0.0 0.00 0.00 0.00 83 1016.9
20260505040503 53 191 0.0 0.0 0.00 0.00 0.00 83 1016.9
20260505040025 53 191 0.0 0.0 0.00 0.00 0.00 83 1016.9
20260505035503 53 191 0.0 0.0 0.00 0.00 0.00 83 1016.9
20260505035003 53 191 0.0 0.0 0.00 0.00 0.00 83 1016.9
20260505034503 53 191 0.0 0.0 0.00 0.00 0.00 83 1016.9
20260505034005 53 191 0.0 0.0 0.00 0.00 0.00 83 1016.9